Voltar ao catálogo

STARLINK-32444

AtivoComunicaçõesVLEO
NORAD 62073·PAYLOAD·🇺🇸 United States

Lançado Nov 24, 2024 de Vandenberg Space Force Base

Loading…

Próximas Passagens (próximas 24 horas)

TLE

AtualizadoSource: CelesTrak SupGP

Época: Sep 14, 2026, 21:15 UTC

1 62073C 24217S   26257.88590278  .00031858  00000+0  94165-3 0  2572
2 62073  53.1586  31.6255 0001141  77.1789  58.4302 15.34361865    11

Acompanhe STARLINK-32444 em tempo real com AllMySat

Download on the App Store